Starlink 11605

operational
NORAD ID: 63134 Int'l Des: 2025-043 Owner: SPXS Country: US Constellation: starlink
LEOCIRCULAR

Über Starlink 11605

Beschreibung wird geladen...

Live-Position

3D-Globus wird geladen...

Nächste Überflüge

Höhenverlauf

Altitude vs Time

uPlot chart will show altitude changes over time

Zweizeiliger Elementsatz

1 63134U 25043C 26035.20404914 .00227312 00000-0 17241-2 0 9995
2 63134 43.0017 92.7414 0001995 251.8857 108.1794 15.70878822 54086
Epoch: 4. Feb. 2026 • Age: 8 hours

Aktueller Status

Höhe 360.3 km
Geschwindigkeit 7.70 km/s
Subsatellitenpunkt 43.09°N, 143.61°W
Startdatum 3. März 2025
Alter 0.9 years
Typ internet

Technische Details

Klassifizierung Payload
Masse 960.00 kg
Trockenmasse 910.00 kg
Gesamtmasse 960.00 kg
Länge 0.30 m
Durchmesser 4.10 m
Spannweite 29.00 m
Form Box + pan
Hersteller SPXS
Bus-Typ Starlink V2MD
Phasenstatus In Orbit
Besitzer/Staat SPXS/US

Große Konstellationen

Loading constellations...